Terminal Aerodrome Forecast
Issued by NWS Rapid City, SD

Home | Current Version | Previous Version | Graphics & Text | Print | Product List | Glossary On
Versions: 1 2 3 4 5 6 7 8 9 10 11 12 13 14 15 16 17 18 19
376
FTUS43 KUNR 120130 AAA
TAFRAP
TAF AMD
KRAP 120130Z 1202/1224 36010KT P6SM SCT200
     FM120400 32006KT P6SM SCT200=

USA.gov is the U.S. government's official web portal to all federal, state and local government web resources and services.